EXPRESS-AT1

Last updated on Wed Jul 02 2025 00:02:46 GMT+0000 (Coordinated Universal Time)

1 39612U 14010A 25182.60739375 .00000082 00000+0 00000+0 0 9993 2 39612 0.0154 321.7052 0000344 29.3205 203.5264 1.00271187 41302
UTC large
Height (km)
Speed (km/s)
/
Latitude / Longitude
Inclination (degrees)
Orbital Period (minutes)
Azimuth
Elevation
Range (km)
Doppler Factor

Next 0 passes for location: London (51.5072 / 0.1276)

Sorry there are no passes over London.